When you browse on this site, cookies collect data to enhance your experience and personalize the content and advertising you see.
Visit our Privacy Policy to learn more. By continuing to use the site, you agree to this use of cookies and data.
  • In Latvia
  • List of Countries
  • For 7 days
  • Water Temperature
  • Weather Map
  • Weather Widgets
  • user-avatar
    Login

    Hourly Weather Binningen

    Today, 15 September, Sunday

    Time Temperature Precipitation Wind Pressure Humidity
    00:00 +17°C° 0 mm 0 mps 744 mmHg 94%
    01:00 +17°C° 0 mm 0 mps 744 mmHg 95%
    02:00 +16°C° 0 mm 0 mps 744 mmHg 95%
    03:00 +16°C° 0 mm 0 mps 743 mmHg 95%
    04:00 +16°C° 0 mm 0 mps 743 mmHg 95%
    05:00 +16°C° 0 mm 0 mps 743 mmHg 95%
    06:00 +18°C° 0 mm 1 mps 743 mmHg 95%
    07:00 +18°C° 0 mm 1 mps 743 mmHg 95%
    08:00 +20°C° 0 mm 1 mps 743 mmHg 88%
    09:00 +23°C° 0 mm 1 mps 743 mmHg 81%
    10:00 +25°C° 0 mm 1 mps 743 mmHg 74%
    11:00 +26°C° 0 mm 1 mps 743 mmHg 69%
    12:00 +28°C° 0 mm 1 mps 743 mmHg 64%
    13:00 +29°C° 0 mm 1 mps 742 mmHg 59%
    14:00 +29°C° 0.1 mm 1 mps 742 mmHg 60%
    15:00 +29°C° 0.1 mm 1 mps 742 mmHg 61%
    16:00 +29°C° 0.1 mm 1 mps 741 mmHg 62%
    17:00 +27°C° 0.1 mm 1 mps 741 mmHg 70%
    18:00 +25°C° 0.1 mm 1 mps 741 mmHg 78%
    19:00 +23°C° 0.1 mm 1 mps 741 mmHg 86%
    20:00 +22°C° 0 mm 1 mps 741 mmHg 87%
    21:00 +20°C° 0 mm 0 mps 741 mmHg 88%
    22:00 +19°C° 0 mm 0 mps 741 mmHg 89%
    23:00 +19°C° 0 mm 0 mps 741 mmHg 90%

    Tomorrow, 16 September, Monday

    Time Temperature Precipitation Wind Pressure Humidity
    00:00 +18°C° 0 mm 0 mps 741 mmHg 90%
    01:00 +18°C° 0 mm 0 mps 741 mmHg 91%
    02:00 +18°C° 0 mm 0 mps 741 mmHg 91%
    03:00 +17°C° 0 mm 0 mps 740 mmHg 92%
    04:00 +17°C° 0 mm 0 mps 740 mmHg 92%
    05:00 +19°C° 0 mm 1 mps 740 mmHg 92%
    06:00 +19°C° 0 mm 1 mps 740 mmHg 92%
    07:00 +19°C° 0 mm 1 mps 739 mmHg 92%
    08:00 +22°C° 0 mm 1 mps 740 mmHg 84%
    09:00 +24°C° 0 mm 1 mps 740 mmHg 76%
    10:00 +24°C° 0 mm 0 mps 740 mmHg 68%
    11:00 +27°C° 0 mm 1 mps 740 mmHg 64%
    12:00 +28°C° 0 mm 2 mps 739 mmHg 60%
    13:00 +29°C° 0 mm 2 mps 739 mmHg 55%
    14:00 +29°C° 0.1 mm 2 mps 739 mmHg 58%
    15:00 +28°C° 0.1 mm 2 mps 739 mmHg 61%
    16:00 +28°C° 0.1 mm 2 mps 738 mmHg 64%
    17:00 +26°C° 0.1 mm 2 mps 738 mmHg 71%
    18:00 +24°C° 0.1 mm 2 mps 738 mmHg 77%
    19:00 +22°C° 0.1 mm 1 mps 738 mmHg 83%
    20:00 +21°C° 0 mm 1 mps 738 mmHg 84%
    21:00 +20°C° 0 mm 1 mps 739 mmHg 85%
    22:00 +19°C° 0 mm 1 mps 739 mmHg 86%
    23:00 +19°C° 0 mm 1 mps 739 mmHg 85%

    Day after tomorrow, 17 September, Tuesday

    Time Temperature Precipitation Wind Pressure Humidity
    00:00 +16°C° 0 mm 0 mps 739 mmHg 84%
    01:00 +16°C° 0 mm 0 mps 738 mmHg 84%
    02:00 +15°C° 0 mm 0 mps 738 mmHg 84%
    03:00 +15°C° 0 mm 0 mps 738 mmHg 84%
    04:00 +14°C° 0 mm 0 mps 738 mmHg 84%
    05:00 +15°C° 0 mm 1 mps 738 mmHg 84%
    06:00 +15°C° 0 mm 1 mps 738 mmHg 84%
    07:00 +15°C° 0 mm 1 mps 738 mmHg 84%
    08:00 +16°C° 0 mm 1 mps 738 mmHg 78%
    09:00 +19°C° 0 mm 1 mps 738 mmHg 72%
    10:00 +20°C° 0 mm 2 mps 739 mmHg 66%
    11:00 +21°C° 0 mm 2 mps 738 mmHg 64%
    12:00 +22°C° 0 mm 3 mps 738 mmHg 63%
    13:00 +24°C° 0 mm 3 mps 738 mmHg 61%
    14:00 +22°C° 0 mm 3 mps 738 mmHg 62%
    15:00 +22°C° 0 mm 3 mps 738 mmHg 63%
    16:00 +22°C° 0 mm 3 mps 737 mmHg 65%
    17:00 +20°C° 0 mm 2 mps 737 mmHg 70%
    18:00 +18°C° 0 mm 2 mps 737 mmHg 74%
    19:00 +17°C° 0 mm 2 mps 737 mmHg 79%
    20:00 +16°C° 0 mm 2 mps 738 mmHg 75%
    21:00 +16°C° 0 mm 2 mps 738 mmHg 72%
    22:00 +16°C° 0 mm 2 mps 739 mmHg 68%
    23:00 +14°C° 0 mm 2 mps 739 mmHg 70%

    18 September, Wednesday

    Time Temperature Precipitation Wind Pressure Humidity
    00:00 +13°C° 0 mm 2 mps 738 mmHg 72%
    01:00 +12°C° 0 mm 2 mps 738 mmHg 73%
    02:00 +10°C° 0 mm 2 mps 738 mmHg 76%
    03:00 +10°C° 0 mm 2 mps 738 mmHg 79%
    04:00 +9°C° 0 mm 2 mps 738 mmHg 81%
    05:00 +9°C° 0 mm 2 mps 738 mmHg 82%
    06:00 +9°C° 0 mm 2 mps 738 mmHg 82%
    07:00 +9°C° 0 mm 2 mps 739 mmHg 83%
    08:00 +12°C° 0 mm 2 mps 739 mmHg 76%
    09:00 +13°C° 0 mm 2 mps 739 mmHg 70%
    10:00 +14°C° 0 mm 3 mps 739 mmHg 63%
    11:00 +16°C° 0 mm 3 mps 739 mmHg 60%
    12:00 +17°C° 0 mm 3 mps 738 mmHg 57%
    13:00 +19°C° 0 mm 4 mps 738 mmHg 55%
    14:00 +18°C° 0 mm 4 mps 738 mmHg 55%
    15:00 +18°C° 0 mm 4 mps 738 mmHg 55%
    16:00 +18°C° 0 mm 4 mps 738 mmHg 55%
    17:00 +17°C° 0 mm 3 mps 738 mmHg 59%
    18:00 +14°C° 0 mm 3 mps 739 mmHg 63%
    19:00 +13°C° 0 mm 2 mps 739 mmHg 66%
    20:00 +12°C° 0 mm 2 mps 739 mmHg 69%
    21:00 +10°C° 0 mm 2 mps 740 mmHg 71%
    22:00 +9°C° 0 mm 2 mps 740 mmHg 73%
    23:00 +9°C° 0 mm 2 mps 740 mmHg 75%

    19 September, Thursday

    Time Temperature Precipitation Wind Pressure Humidity
    00:00 +8°C° 0 mm 2 mps 740 mmHg 77%
    01:00 +8°C° 0 mm 2 mps 740 mmHg 79%
    02:00 +7°C° 0 mm 2 mps 740 mmHg 81%
    03:00 +7°C° 0 mm 2 mps 740 mmHg 83%
    04:00 +6°C° 0 mm 2 mps 740 mmHg 85%
    05:00 +6°C° 0 mm 2 mps 740 mmHg 83%
    06:00 +6°C° 0 mm 2 mps 740 mmHg 82%
    07:00 +6°C° 0 mm 2 mps 741 mmHg 81%
    08:00 +8°C° 0 mm 2 mps 741 mmHg 72%
    09:00 +10°C° 0 mm 3 mps 741 mmHg 64%
    10:00 +13°C° 0 mm 4 mps 742 mmHg 55%
    11:00 +14°C° 0 mm 4 mps 741 mmHg 52%
    12:00 +15°C° 0 mm 4 mps 741 mmHg 49%
    13:00 +17°C° 0 mm 4 mps 741 mmHg 46%
    14:00 +16°C° 0 mm 5 mps 741 mmHg 47%
    15:00 +16°C° 0 mm 5 mps 741 mmHg 48%
    16:00 +16°C° 0 mm 5 mps 741 mmHg 49%
    17:00 +14°C° 0 mm 4 mps 742 mmHg 55%
    18:00 +12°C° 0 mm 4 mps 742 mmHg 61%
    19:00 +10°C° 0 mm 3 mps 742 mmHg 66%
    20:00 +9°C° 0 mm 3 mps 743 mmHg 69%
    21:00 +9°C° 0 mm 3 mps 743 mmHg 72%
    22:00 +8°C° 0 mm 3 mps 744 mmHg 75%
    23:00 +7°C° 0 mm 3 mps 744 mmHg 76%

    20 September, Friday

    Time Temperature Precipitation Wind Pressure Humidity
    00:00 +7°C° 0 mm 2 mps 744 mmHg 77%
    01:00 +6°C° 0 mm 2 mps 744 mmHg 79%
    02:00 +6°C° 0 mm 2 mps 744 mmHg 80%
    03:00 +5°C° 0 mm 2 mps 743 mmHg 81%
    04:00 +5°C° 0 mm 2 mps 743 mmHg 81%
    05:00 +5°C° 0 mm 2 mps 743 mmHg 81%
    06:00 +5°C° 0 mm 2 mps 743 mmHg 81%
    07:00 +5°C° 0 mm 2 mps 743 mmHg 80%
    08:00 +7°C° 0 mm 3 mps 743 mmHg 71%
    09:00 +10°C° 0 mm 3 mps 744 mmHg 62%
    10:00 +12°C° 0 mm 4 mps 744 mmHg 53%
    11:00 +13°C° 0 mm 4 mps 743 mmHg 49%
    12:00 +15°C° 0 mm 4 mps 743 mmHg 46%
    13:00 +17°C° 0 mm 4 mps 743 mmHg 42%
    14:00 +17°C° 0 mm 4 mps 743 mmHg 43%
    15:00 +17°C° 0 mm 3 mps 742 mmHg 45%
    16:00 +17°C° 0 mm 3 mps 742 mmHg 46%
    17:00 +14°C° 0 mm 3 mps 742 mmHg 54%
    18:00 +13°C° 0 mm 2 mps 742 mmHg 61%
    19:00 +10°C° 0 mm 2 mps 742 mmHg 69%
    20:00 +10°C° 0 mm 1 mps 743 mmHg 72%
    21:00 +9°C° 0 mm 1 mps 743 mmHg 76%
    22:00 +8°C° 0 mm 1 mps 743 mmHg 79%
    23:00 +8°C° 0 mm 1 mps 742 mmHg 81%
    Show more